This is the latest recevied weather packets stored in our database for station/object KD7DVD-1. If no packets are shown the sender has not sent any weather packets the latest 10 day(s).
| Time | Temp. | Humidity | Pressure | Rain* | Wind** | Luminosity | Snow |
|---|---|---|---|---|---|---|---|
| 1788161417 | 14.44° C | 81% | 1016.1 hPa | 0 mm | - | - | - |
| 1788159616 | 14.44° C | 80% | 1016.4 hPa | 0 mm | - | - | - |
| 1788157817 | 15° C | 78% | 1016.7 hPa | 0 mm | - | - | - |
| 1788156017 | 16.11° C | 75% | 1016.7 hPa | 0 mm | - | - | - |
| 1788154217 | 16.11° C | 74% | 1017.1 hPa | 0 mm | - | - | - |
| 1788152417 | 16.67° C | 72% | 1017.3 hPa | 0 mm | - | - | - |
| 1788150617 | 16.11° C | 73% | 1017.4 hPa | 0 mm | - | - | - |
| 1788148832 | 17.22° C | 69% | 1017.3 hPa | 0 mm | - | - | - |
| 1788147017 | 17.78° C | 65% | 1017.2 hPa | 0 mm | - | - | - |
| 1788145217 | 18.33° C | 62% | 1017.2 hPa | 0 mm | - | - | - |
| 1788143417 | 18.89° C | 60% | 1017.1 hPa | 0 mm | - | - | - |
| 1788141617 | 20° C | 57% | 1017.4 hPa | 0 mm | - | - | - |
| 1788139817 | 20° C | 54% | 1017.6 hPa | 0 mm | - | - | - |
| 1788138016 | 21.11° C | 55% | 1017.9 hPa | 0 mm | - | - | - |
| 1788136217 | 21.67° C | 53% | 1018 hPa | 0 mm | - | - | - |
| 1788134416 | 21.67° C | 51% | 1018.1 hPa | 0 mm | - | - | - |
| 1788132616 | 20.56° C | 57% | 1018.4 hPa | 0 mm | - | - | - |
| 1788130816 | 20.56° C | 60% | 1018.4 hPa | 0 mm | - | - | - |
| 1788129016 | 20.56° C | 60% | 1018.7 hPa | 0 mm | - | - | - |
| 1788127217 | 20° C | 61% | 1019 hPa | 0 mm | - | - | - |
| 1788125416 | 19.44° C | 63% | 1019.3 hPa | 0 mm | - | - | - |
| 1788123616 | 19.44° C | 60% | 1019.4 hPa | 0 mm | - | - | - |
| 1788121816 | 19.44° C | 64% | 1019.6 hPa | 0 mm | - | - | - |
| 1788120016 | 19.44° C | 67% | 1019.9 hPa | 0 mm | - | - | - |
| 1788118216 | 18.33° C | 69% | 1020 hPa | 0 mm | - | - | - |
* Rain latest hour (hover to see other rain measurements)
** Current wind speed in m/s (hover to see current wind gust speed)